User: anonymous   Login
Location: Nirvana
(45.0297°N, 77.2628°W)
Time: 04:44:13
(UTC-05:00)
Language:

H-2A R/B - Orbit

View from above orbital plane
View from above orbital plane
View from above satellite
View from above satellite

Ground track
Ground track

The orbit data is extracted from the following two-line orbital elements,

1 27601U 02056E   14326.14242226  .00000380  00000-0  15463-3 0  2387
2 27601 098.4721 045.0826 0072609 191.6573 190.8434 14.31466224623597
Epoch (UTC): 22 November 2014 03:25:05
Eccentricity: 0.0072609
inclination: 98.4721°
perigee height: 735 km
apogee height: 839 km
right ascension of ascending node: 45.0826°
argument of perigee: 191.6573°
revolutions per day: 14.31466224
mean anomaly at epoch: 190.8434°
orbit number at epoch: 62359

The dashed part of the orbit path shows where the satellite is in the earth's shadow,  

DLR